Weather in Skukuza

South Africa     24°59′59″S   31°35′34″E
temp.,
°C
wind,
m/s
gust,
m/s
humid.,
%
clouds,
%
prec.,
mm/h
press.,
hPa
HPBL,
m
10 august, wed
wed1023:00+16sw11860 0.0 102316
02:00+15wsw11910 0.0 102211
05:00+14wnw11920 0.0 102112
08:00+17nw23720 0.0 1022235
11:00+24n34430 0.0 10201119
14:00+28n33270 0.0 10161630
17:00+26nne35290 0.0 1016230
20:00+21nne23460 0.0 101843
11 august, thu
thu1123:00+19wnw11510 0.0 102011
02:00+17ssw11550 0.0 102011
05:00+16wsw11600 0.0 102011
08:00+19w12481 0.0 1022178
11:00+26n34342 0.0 10201134
14:00+30n44250 0.0 10161861
17:00+28nne36270 0.0 1016328
20:00+22nne26400 0.0 1017113
12 august, fri
fri1223:00+20wnw22460 0.0 101815
02:00+18w22500 0.0 101719
05:00+17wnw22550 0.0 101715
08:00+20nnw38460 0.0 1018311
11:00+29n56270 0.0 10161260
14:00+32n56200 0.0 10121744
17:00+30nne48220 0.0 1011538
20:00+24n310310 0.0 1013243
13 august, sat
sat1323:00+21nw27380 0.0 1013140
02:00+20nw25390 0.0 1012106
05:00+18nw24440 0.0 101294
08:00+21nnw24395 0.0 1013231
11:00+30n44220 0.0 1010989
14:00+33n67160 0.0 10051683
17:00+32n610152 0.0 1004926
20:00+25n38250 0.0 1006197
14 august, sun
sun1423:00+24nnw413300 0.0 1006402
02:00+22n311300 0.0 1005360
05:00+21nnw414330 0.0 1006494
08:00+22wsw24270 0.0 1008238
11:00+30se44130 0.0 10081198
14:00+31e54130 0.0 10062301
17:00+22ese811634 0.0 1010712
20:00+18se6106867 0.0 1016940